Cosmos 158 Rocket - Orbit

View from above orbital plane
View from above orbital plane
View from above satellite
View from above satellite

Ground track
Ground track

The orbit data is extracted from the following two-line orbital elements,

1 02802U 67045B   13138.83217854  .00000331  00000-0  10447-3 0  1772
2 02802 074.0148 059.7609 0066320 112.7753 248.0428 14.42911512413957
Epoch (UTC): 18 May 2013 19:58:20
Eccentricity: 0.0066320
inclination: 74.0148°
perigee height: 701 km
apogee height: 796 km
right ascension of ascending node: 59.7609°
argument of perigee: 112.7753°
revolutions per day: 14.42911512
mean anomaly at epoch: 248.0428°
orbit number at epoch: 41395

The dashed part of the orbit path shows where the satellite is in the earth's shadow,  

Developed and maintained by Chris Peat, Heavens-Above GmbH. Please read the updated FAQ before sending e-mail. Imprint. DLR